Precipitable_Water
0.65 0.64 0.62 0.57 0.54 0.55 0.57 0.59 0.59 0.58 0.57 0.55 0.53 0.52 0.54 0.58 0.61 0.62 0.62 0.61 0.60 0.60 0.62 0.60 0.60 0.59 0.57 0.56 0.56 0.54 0.54 0.53 0.51 0.49 0.49 0.51 0.52 0.51 0.49 0.52 0.53 0.55 0.56 0.49 0.44 0.42 0.40 0.41 0.41 0.48 0.49 0.44 0.42 0.40 0.45 0.51 0.60 0.67 0.53 0.48 0.40 0.43 0.42 0.49 0.46 0.48 0.50 0.47 0.48 0.48 0.49 0.48 0.45 0.52 0.58 0.62 0.59 0.60 0.62 0.62 0.68 0.72 0.70 0.72 0.73 0.75 0.77 0.81
0.60 0.60 0.57 0.53 0.49 0.51 0.52 0.54 0.55 0.55 0.56 0.56 0.54 0.52 0.52 0.52 0.53 0.59 0.60 0.60 0.60 0.61 0.61 0.59 0.54 0.51 0.54 0.53 0.52 0.48 0.47 0.46 0.43 0.42 0.40 0.47 0.48 0.47 0.47 0.48 0.50 0.50 0.47 0.37 0.36 0.35 0.34 0.33 0.35 0.38 0.36 0.28 0.35 0.30 0.40 0.34 0.48 0.42 0.43 0.42 0.33 0.40 0.43 0.52 0.50 0.48 0.45 0.44 0.44 0.45 0.48 0.47 0.45 0.50 0.55 0.49 0.49 0.51 0.50 0.52 0.57 0.57 0.61 0.66 0.67 0.69 0.71 0.74
0.56 0.57 0.54 0.50 0.49 0.50 0.52 0.52 0.52 0.51 0.52 0.54 0.54 0.53 0.50 0.49 0.49 0.50 0.51 0.52 0.53 0.53 0.53 0.51 0.50 0.48 0.47 0.51 0.48 0.45 0.43 0.38 0.37 0.33 0.41 0.45 0.45 0.45 0.45 0.46 0.49 0.47 0.39 0.34 0.37 0.35 0.31 0.32 0.32 0.31 0.31 0.26 0.28 0.25 0.33 0.31 0.38 0.40 0.37 0.30 0.32 0.42 0.43 0.46 0.48 0.47 0.49 0.47 0.41 0.40 0.42 0.44 0.47 0.49 0.52 0.44 0.42 0.45 0.42 0.42 0.47 0.47 0.47 0.51 0.56 0.59 0.61 0.64
0.56 0.56 0.52 0.49 0.48 0.50 0.51 0.53 0.53 0.52 0.51 0.49 0.49 0.49 0.48 0.46 0.44 0.45 0.46 0.46 0.47 0.46 0.46 0.44 0.43 0.43 0.45 0.44 0.45 0.43 0.38 0.33 0.28 0.33 0.41 0.44 0.44 0.44 0.42 0.44 0.45 0.44 0.40 0.35 0.35 0.33 0.34 0.32 0.29 0.28 0.27 0.25 0.26 0.28 0.25 0.32 0.30 0.38 0.35 0.29 0.32 0.41 0.39 0.45 0.49 0.50 0.47 0.43 0.39 0.38 0.39 0.38 0.41 0.43 0.43 0.40 0.36 0.36 0.37 0.41 0.39 0.38 0.40 0.42 0.48 0.52 0.55 0.57
0.53 0.51 0.48 0.46 0.46 0.47 0.50 0.53 0.54 0.53 0.52 0.50 0.50 0.49 0.49 0.48 0.46 0.46 0.46 0.45 0.46 0.44 0.42 0.40 0.38 0.39 0.40 0.41 0.39 0.37 0.30 0.23 0.24 0.31 0.38 0.41 0.43 0.42 0.42 0.44 0.43 0.41 0.37 0.37 0.35 0.34 0.33 0.30 0.27 0.26 0.23 0.21 0.23 0.23 0.23 0.25 0.33 0.35 0.30 0.34 0.36 0.37 0.33 0.39 0.42 0.42 0.39 0.38 0.36 0.35 0.31 0.30 0.38 0.37 0.35 0.34 0.27 0.24 0.27 0.30 0.33 0.34 0.35 0.37 0.38 0.43 0.48 0.50
0.49 0.45 0.43 0.42 0.42 0.44 0.47 0.52 0.56 0.58 0.57 0.55 0.52 0.50 0.49 0.49 0.48 0.47 0.45 0.43 0.43 0.42 0.40 0.38 0.37 0.37 0.39 0.39 0.35 0.31 0.25 0.15 0.32 0.34 0.40 0.41 0.40 0.40 0.42 0.43 0.39 0.37 0.34 0.27 0.25 0.25 0.23 0.24 0.23 0.19 0.18 0.18 0.18 0.17 0.20 0.23 0.30 0.20 0.24 0.27 0.30 0.31 0.28 0.32 0.34 0.35 0.35 0.32 0.30 0.28 0.30 0.33 0.31 0.29 0.32 0.31 0.27 0.26 0.31 0.31 0.31 0.31 0.33 0.36 0.38 0.38 0.39 0.42
0.45 0.44 0.44 0.43 0.44 0.47 0.49 0.53 0.55 0.57 0.58 0.58 0.57 0.53 0.50 0.50 0.50 0.49 0.47 0.46 0.43 0.42 0.39 0.37 0.35 0.33 0.35 0.35 0.29 0.26 0.22 0.21 0.27 0.33 0.36 0.37 0.35 0.37 0.39 0.36 0.35 0.30 0.28 0.24 0.22 0.19 0.19 0.17 0.17 0.15 0.15 0.15 0.16 0.16 0.17 0.19 0.23 0.21 0.18 0.23 0.23 0.25 0.24 0.26 0.26 0.27 0.27 0.27 0.25 0.27 0.29 0.25 0.25 0.21 0.27 0.25 0.26 0.26 0.28 0.28 0.28 0.29 0.31 0.33 0.32 0.33 0.33 0.35
0.43 0.43 0.44 0.45 0.45 0.48 0.49 0.51 0.54 0.55 0.56 0.58 0.58 0.57 0.55 0.53 0.52 0.50 0.49 0.47 0.45 0.40 0.38 0.36 0.34 0.33 0.36 0.27 0.22 0.20 0.19 0.18 0.27 0.35 0.34 0.34 0.32 0.34 0.35 0.31 0.29 0.26 0.23 0.20 0.20 0.18 0.17 0.15 0.14 0.16 0.13 0.12 0.14 0.15 0.18 0.17 0.19 0.17 0.17 0.20 0.21 0.22 0.23 0.24 0.24 0.24 0.24 0.24 0.25 0.24 0.21 0.20 0.22 0.21 0.21 0.17 0.19 0.20 0.22 0.25 0.25 0.26 0.28 0.29 0.29 0.29 0.31 0.33
0.44 0.44 0.45 0.46 0.48 0.49 0.48 0.49 0.49 0.50 0.51 0.53 0.55 0.57 0.57 0.55 0.52 0.51 0.49 0.46 0.44 0.40 0.38 0.37 0.35 0.35 0.35 0.26 0.21 0.18 0.18 0.27 0.34 0.34 0.33 0.31 0.30 0.29 0.30 0.24 0.26 0.22 0.19 0.19 0.21 0.19 0.17 0.15 0.15 0.15 0.11 0.12 0.16 0.13 0.15 0.14 0.12 0.17 0.17 0.18 0.18 0.18 0.20 0.21 0.21 0.21 0.21 0.21 0.21 0.19 0.17 0.18 0.18 0.19 0.14 0.13 0.14 0.16 0.19 0.20 0.21 0.23 0.23 0.23 0.25 0.27 0.28 0.30
0.45 0.45 0.45 0.47 0.48 0.45 0.44 0.45 0.47 0.48 0.46 0.45 0.49 0.54 0.55 0.54 0.51 0.50 0.49 0.47 0.44 0.41 0.39 0.38 0.36 0.35 0.29 0.23 0.20 0.15 0.26 0.33 0.33 0.32 0.29 0.28 0.27 0.26 0.25 0.24 0.23 0.21 0.18 0.19 0.19 0.19 0.16 0.16 0.15 0.17 0.16 0.14 0.16 0.13 0.16 0.14 0.12 0.18 0.16 0.16 0.16 0.16 0.17 0.18 0.17 0.17 0.17 0.16 0.16 0.13 0.12 0.13 0.16 0.15 0.09 0.12 0.14 0.16 0.16 0.17 0.19 0.20 0.19 0.21 0.23 0.25 0.27 0.27
0.47 0.45 0.44 0.45 0.43 0.43 0.44 0.45 0.48 0.49 0.48 0.47 0.47 0.47 0.50 0.50 0.50 0.51 0.50 0.46 0.43 0.42 0.39 0.36 0.37 0.33 0.24 0.23 0.17 0.16 0.32 0.30 0.30 0.28 0.27 0.26 0.25 0.24 0.23 0.23 0.24 0.21 0.19 0.19 0.18 0.19 0.19 0.18 0.18 0.18 0.16 0.12 0.15 0.14 0.15 0.15 0.18 0.16 0.15 0.15 0.14 0.15 0.15 0.15 0.15 0.15 0.15 0.13 0.15 0.14 0.12 0.14 0.14 0.14 0.09 0.10 0.15 0.17 0.16 0.16 0.17 0.18 0.19 0.19 0.21 0.23 0.25 0.27
0.47 0.44 0.43 0.44 0.44 0.44 0.45 0.47 0.49 0.49 0.50 0.49 0.48 0.49 0.48 0.48 0.47 0.47 0.44 0.42 0.39 0.39 0.38 0.37 0.34 0.29 0.26 0.22 0.19 0.20 0.31 0.29 0.28 0.27 0.26 0.25 0.24 0.25 0.25 0.24 0.23 0.21 0.20 0.17 0.17 0.19 0.19 0.19 0.19 0.16 0.11 0.17 0.11 0.15 0.14 0.18 0.16 0.15 0.15 0.11 0.12 0.13 0.12 0.13 0.12 0.13 0.14 0.12 0.15 0.16 0.13 0.10 0.12 0.09 0.11 0.15 0.17 0.18 0.17 0.16 0.17 0.18 0.19 0.20 0.20 0.21 0.23 0.23
0.46 0.45 0.46 0.45 0.45 0.46 0.48 0.48 0.48 0.49 0.48 0.47 0.47 0.46 0.47 0.46 0.43 0.42 0.40 0.36 0.39 0.37 0.37 0.35 0.33 0.32 0.24 0.17 0.21 0.30 0.32 0.30 0.28 0.26 0.24 0.24 0.23 0.25 0.25 0.24 0.23 0.23 0.21 0.19 0.18 0.20 0.20 0.20 0.19 0.14 0.17 0.14 0.13 0.10 0.16 0.17 0.14 0.14 0.13 0.11 0.10 0.09 0.08 0.11 0.13 0.14 0.14 0.15 0.17 0.16 0.07 0.06 0.09 0.11 0.12 0.16 0.16 0.17 0.16 0.15 0.17 0.18 0.18 0.19 0.19 0.19 0.20 0.22
0.46 0.48 0.50 0.47 0.46 0.46 0.47 0.47 0.46 0.46 0.46 0.45 0.44 0.43 0.42 0.40 0.39 0.38 0.37 0.35 0.38 0.38 0.38 0.35 0.34 0.29 0.23 0.18 0.25 0.29 0.31 0.31 0.29 0.24 0.22 0.21 0.18 0.18 0.22 0.24 0.24 0.23 0.23 0.21 0.20 0.21 0.21 0.22 0.19 0.17 0.21 0.15 0.12 0.20 0.15 0.14 0.15 0.10 0.11 0.11 0.08 0.07 0.06 0.12 0.13 0.14 0.12 0.15 0.16 0.16 0.07 0.06 0.09 0.09 0.12 0.14 0.14 0.13 0.11 0.11 0.12 0.14 0.15 0.17 0.17 0.18 0.18 0.19
0.50 0.50 0.49 0.46 0.43 0.43 0.45 0.46 0.44 0.44 0.44 0.42 0.41 0.39 0.39 0.36 0.36 0.37 0.39 0.36 0.42 0.43 0.39 0.36 0.34 0.26 0.20 0.21 0.28 0.31 0.33 0.30 0.23 0.22 0.22 0.17 0.15 0.15 0.17 0.21 0.21 0.22 0.22 0.22 0.20 0.22 0.22 0.21 0.19 0.14 0.12 0.18 0.17 0.13 0.11 0.10 0.11 0.11 0.07 0.05 0.08 0.07 0.07 0.10 0.14 0.13 0.10 0.14 0.16 0.13 0.07 0.06 0.07 0.07 0.08 0.11 0.11 0.11 0.10 0.10 0.10 0.11 0.12 0.13 0.14 0.15 0.16 0.17
0.51 0.49 0.48 0.46 0.43 0.43 0.44 0.43 0.42 0.40 0.39 0.39 0.38 0.37 0.36 0.37 0.38 0.40 0.41 0.40 0.43 0.43 0.40 0.32 0.31 0.27 0.20 0.16 0.21 0.30 0.27 0.21 0.20 0.21 0.19 0.18 0.17 0.14 0.17 0.17 0.19 0.20 0.21 0.20 0.23 0.22 0.21 0.20 0.15 0.15 0.14 0.15 0.13 0.11 0.09 0.08 0.08 0.11 0.08 0.06 0.06 0.08 0.07 0.08 0.12 0.14 0.14 0.13 0.14 0.11 0.06 0.07 0.06 0.07 0.09 0.11 0.11 0.11 0.11 0.10 0.10 0.10 0.10 0.11 0.11 0.13 0.14 0.15
0.50 0.49 0.49 0.47 0.45 0.45 0.45 0.45 0.43 0.41 0.40 0.39 0.39 0.39 0.38 0.39 0.40 0.40 0.40 0.41 0.39 0.38 0.30 0.24 0.30 0.31 0.14 0.23 0.26 0.20 0.19 0.21 0.22 0.19 0.18 0.19 0.18 0.16 0.16 0.16 0.15 0.17 0.19 0.19 0.20 0.19 0.19 0.16 0.19 0.17 0.17 0.12 0.13 0.12 0.08 0.06 0.06 0.07 0.10 0.07 0.08 0.07 0.08 0.07 0.11 0.14 0.14 0.13 0.10 0.12 0.10 0.08 0.08 0.09 0.10 0.12 0.12 0.12 0.11 0.10 0.10 0.10 0.10 0.11 0.11 0.12 0.12 0.13
0.50 0.48 0.50 0.49 0.45 0.45 0.46 0.45 0.43 0.43 0.43 0.42 0.40 0.39 0.38 0.42 0.41 0.35 0.34 0.34 0.35 0.31 0.30 0.32 0.29 0.20 0.15 0.22 0.16 0.17 0.20 0.18 0.18 0.18 0.17 0.18 0.19 0.17 0.16 0.15 0.16 0.16 0.16 0.15 0.18 0.15 0.18 0.14 0.17 0.11 0.13 0.13 0.13 0.11 0.07 0.04 0.05 0.05 0.06 0.07 0.07 0.09 0.10 0.08 0.07 0.11 0.13 0.13 0.11 0.11 0.10 0.08 0.08 0.09 0.10 0.11 0.13 0.12 0.11 0.11 0.11 0.11 0.11 0.11 0.12 0.12 0.12 0.12
0.50 0.49 0.50 0.50 0.48 0.47 0.47 0.46 0.43 0.44 0.46 0.46 0.45 0.46 0.45 0.42 0.38 0.36 0.28 0.27 0.20 0.16 0.13 0.15 0.16 0.09 0.07 0.13 0.18 0.17 0.17 0.18 0.18 0.16 0.15 0.16 0.18 0.19 0.18 0.18 0.16 0.14 0.12 0.12 0.13 0.14 0.17 0.14 0.14 0.11 0.08 0.09 0.10 0.10 0.08 0.07 0.09 0.08 0.08 0.08 0.09 0.08 0.07 0.08 0.10 0.14 0.14 0.10 0.09 0.09 0.08 0.08 0.08 0.09 0.10 0.11 0.13 0.12 0.11 0.11 0.11 0.11 0.11 0.11 0.11 0.11 0.11 0.11
0.50 0.49 0.50 0.48 0.48 0.47 0.46 0.47 0.46 0.46 0.47 0.42 0.42 0.41 0.39 0.33 0.29 0.25 0.27 0.23 0.17 0.15 0.14 0.16 0.18 0.18 0.17 0.16 0.15 0.18 0.20 0.20 0.14 0.15 0.15 0.18 0.16 0.15 0.14 0.15 0.14 0.15 0.12 0.09 0.12 0.14 0.16 0.10 0.08 0.07 0.08 0.09 0.11 0.12 0.11 0.11 0.11 0.12 0.12 0.11 0.10 0.10 0.10 0.11 0.12 0.14 0.16 0.11 0.09 0.10 0.11 0.10 0.10 0.10 0.10 0.10 0.11 0.10 0.10 0.10 0.10 0.10 0.10 0.10 0.10 0.10 0.10 0.10
0.51 0.49 0.49 0.49 0.47 0.47 0.47 0.47 0.47 0.47 0.46 0.43 0.43 0.34 0.22 0.24 0.18 0.16 0.18 0.19 0.20 0.20 0.17 0.16 0.16 0.15 0.14 0.16 0.17 0.16 0.13 0.13 0.15 0.14 0.14 0.18 0.16 0.13 0.11 0.12 0.11 0.09 0.11 0.13 0.11 0.16 0.14 0.09 0.07 0.09 0.10 0.11 0.12 0.12 0.13 0.13 0.13 0.12 0.12 0.11 0.10 0.11 0.09 0.10 0.11 0.13 0.15 0.12 0.10 0.12 0.11 0.09 0.09 0.10 0.10 0.10 0.09 0.09 0.09 0.09 0.09 0.10 0.10 0.10 0.10 0.10 0.10 0.10
0.51 0.50 0.48 0.49 0.49 0.48 0.48 0.47 0.45 0.47 0.47 0.43 0.37 0.27 0.26 0.27 0.33 0.31 0.21 0.14 0.18 0.20 0.21 0.19 0.20 0.16 0.19 0.18 0.20 0.19 0.16 0.11 0.10 0.13 0.16 0.16 0.13 0.08 0.10 0.10 0.09 0.08 0.11 0.12 0.12 0.11 0.09 0.08 0.08 0.11 0.13 0.13 0.13 0.13 0.14 0.13 0.12 0.13 0.12 0.11 0.10 0.10 0.11 0.11 0.11 0.14 0.16 0.13 0.10 0.11 0.09 0.09 0.09 0.09 0.10 0.10 0.10 0.10 0.10 0.10 0.10 0.10 0.10 0.10 0.10 0.10 0.11 0.11
0.51 0.51 0.49 0.48 0.49 0.49 0.48 0.47 0.44 0.44 0.41 0.35 0.31 0.28 0.26 0.39 0.45 0.38 0.28 0.20 0.15 0.19 0.18 0.17 0.15 0.15 0.15 0.19 0.19 0.21 0.12 0.09 0.08 0.11 0.13 0.15 0.13 0.11 0.10 0.08 0.08 0.09 0.10 0.11 0.08 0.08 0.07 0.07 0.10 0.12 0.14 0.12 0.12 0.13 0.14 0.13 0.14 0.12 0.12 0.10 0.08 0.10 0.09 0.07 0.09 0.12 0.15 0.13 0.09 0.10 0.09 0.08 0.08 0.10 0.10 0.10 0.10 0.10 0.11 0.11 0.11 0.12 0.11 0.10 0.11 0.11 0.11 0.12
0.52 0.51 0.49 0.47 0.49 0.48 0.47 0.45 0.44 0.38 0.36 0.34 0.31 0.28 0.40 0.43 0.40 0.36 0.25 0.15 0.11 0.14 0.17 0.18 0.18 0.17 0.17 0.15 0.20 0.17 0.12 0.11 0.10 0.10 0.17 0.15 0.11 0.15 0.10 0.09 0.08 0.09 0.08 0.09 0.10 0.08 0.07 0.10 0.13 0.14 0.14 0.13 0.11 0.12 0.12 0.11 0.10 0.12 0.11 0.11 0.09 0.09 0.09 0.09 0.09 0.11 0.11 0.11 0.11 0.10 0.08 0.08 0.08 0.08 0.08 0.09 0.10 0.10 0.11 0.12 0.13 0.13 0.13 0.12 0.13 0.13 0.13 0.12
0.52 0.52 0.50 0.48 0.47 0.50 0.45 0.44 0.34 0.32 0.39 0.34 0.28 0.37 0.41 0.41 0.41 0.39 0.21 0.13 0.11 0.11 0.27 0.22 0.23 0.21 0.21 0.26 0.23 0.15 0.14 0.12 0.12 0.15 0.18 0.17 0.12 0.10 0.10 0.14 0.11 0.08 0.09 0.11 0.11 0.10 0.10 0.13 0.15 0.13 0.13 0.13 0.12 0.11 0.11 0.11 0.09 0.10 0.11 0.11 0.10 0.10 0.10 0.11 0.11 0.10 0.08 0.08 0.11 0.10 0.06 0.06 0.07 0.08 0.08 0.09 0.09 0.10 0.12 0.12 0.12 0.12 0.13 0.13 0.13 0.13 0.14 0.14
0.52 0.51 0.51 0.48 0.47 0.47 0.47 0.33 0.31 0.36 0.33 0.29 0.28 0.38 0.40 0.41 0.43 0.38 0.19 0.09 0.06 0.11 0.22 0.13 0.25 0.17 0.26 0.18 0.18 0.15 0.14 0.09 0.17 0.17 0.18 0.18 0.20 0.14 0.13 0.11 0.11 0.08 0.10 0.11 0.10 0.10 0.10 0.13 0.13 0.12 0.12 0.12 0.12 0.11 0.12 0.12 0.09 0.09 0.09 0.12 0.11 0.11 0.11 0.11 0.10 0.09 0.07 0.07 0.09 0.10 0.07 0.05 0.07 0.08 0.09 0.09 0.09 0.10 0.11 0.12 0.12 0.12 0.12 0.13 0.13 0.13 0.14 0.14
0.53 0.52 0.52 0.48 0.46 0.47 0.35 0.28 0.34 0.35 0.26 0.27 0.36 0.40 0.40 0.39 0.41 0.33 0.13 0.07 0.05 0.18 0.13 0.25 0.19 0.20 0.25 0.20 0.17 0.15 0.06 0.07 0.14 0.17 0.17 0.20 0.13 0.23 0.10 0.10 0.12 0.15 0.15 0.13 0.09 0.08 0.12 0.12 0.12 0.13 0.12 0.11 0.11 0.10 0.12 0.12 0.10 0.09 0.13 0.13 0.12 0.11 0.11 0.11 0.10 0.10 0.09 0.10 0.10 0.10 0.09 0.07 0.06 0.08 0.10 0.11 0.11 0.10 0.10 0.11 0.12 0.12 0.13 0.13 0.13 0.13 0.14 0.14
0.53 0.52 0.52 0.50 0.46 0.43 0.37 0.35 0.32 0.26 0.24 0.39 0.45 0.40 0.40 0.38 0.35 0.32 0.12 0.04 0.03 0.25 0.15 0.18 0.20 0.29 0.22 0.22 0.21 0.13 0.12 0.15 0.09 0.16 0.20 0.20 0.17 0.13 0.13 0.10 0.10 0.10 0.12 0.10 0.07 0.10 0.11 0.10 0.11 0.11 0.11 0.11 0.10 0.12 0.13 0.14 0.11 0.10 0.13 0.14 0.12 0.12 0.11 0.11 0.11 0.10 0.10 0.09 0.07 0.09 0.11 0.08 0.07 0.08 0.11 0.12 0.10 0.10 0.10 0.11 0.12 0.12 0.13 0.13 0.13 0.13 0.14 0.14
0.52 0.52 0.51 0.50 0.46 0.45 0.48 0.39 0.33 0.26 0.36 0.45 0.45 0.43 0.36 0.36 0.25 0.13 0.08 0.04 0.11 0.14 0.38 0.16 0.32 0.20 0.18 0.19 0.16 0.16 0.14 0.15 0.09 0.13 0.19 0.20 0.20 0.14 0.10 0.11 0.12 0.13 0.14 0.12 0.08 0.10 0.12 0.12 0.12 0.13 0.12 0.10 0.12 0.13 0.14 0.14 0.11 0.13 0.15 0.15 0.14 0.14 0.13 0.12 0.11 0.10 0.10 0.09 0.07 0.08 0.10 0.08 0.06 0.09 0.10 0.11 0.11 0.10 0.10 0.11 0.12 0.13 0.13 0.13 0.14 0.13 0.14 0.14
0.52 0.51 0.51 0.49 0.44 0.42 0.43 0.45 0.37 0.43 0.43 0.43 0.43 0.38 0.32 0.25 0.16 0.09 0.05 0.03 0.22 0.10 0.19 0.20 0.18 0.13 0.17 0.12 0.11 0.13 0.11 0.13 0.14 0.16 0.17 0.15 0.16 0.17 0.15 0.19 0.14 0.13 0.12 0.14 0.12 0.12 0.13 0.18 0.17 0.14 0.12 0.12 0.13 0.15 0.15 0.15 0.15 0.17 0.15 0.13 0.12 0.12 0.13 0.13 0.12 0.12 0.10 0.08 0.08 0.09 0.10 0.09 0.07 0.08 0.09 0.10 0.11 0.11 0.11 0.12 0.12 0.13 0.13 0.14 0.14 0.15 0.15 0.15
0.51 0.51 0.51 0.48 0.38 0.41 0.43 0.33 0.37 0.45 0.43 0.41 0.36 0.31 0.24 0.16 0.09 0.06 0.04 0.04 0.12 0.14 0.21 0.18 0.13 0.19 0.12 0.09 0.07 0.12 0.11 0.12 0.13 0.14 0.12 0.14 0.14 0.16 0.15 0.12 0.17 0.12 0.11 0.11 0.11 0.12 0.13 0.15 0.14 0.15 0.17 0.16 0.16 0.14 0.17 0.17 0.17 0.15 0.13 0.12 0.11 0.10 0.11 0.11 0.11 0.12 0.09 0.07 0.09 0.11 0.11 0.10 0.07 0.07 0.10 0.12 0.12 0.12 0.12 0.12 0.12 0.13 0.14 0.14 0.15 0.16 0.16 0.16
0.49 0.49 0.50 0.45 0.47 0.49 0.35 0.30 0.39 0.44 0.39 0.37 0.29 0.20 0.15 0.08 0.09 0.05 0.04 0.15 0.06 0.11 0.10 0.10 0.14 0.13 0.12 0.13 0.10 0.10 0.09 0.10 0.13 0.12 0.11 0.11 0.10 0.11 0.12 0.09 0.11 0.08 0.07 0.08 0.08 0.11 0.09 0.10 0.14 0.15 0.19 0.16 0.14 0.13 0.14 0.16 0.16 0.15 0.13 0.12 0.10 0.09 0.09 0.08 0.09 0.08 0.08 0.07 0.09 0.11 0.11 0.09 0.08 0.09 0.11 0.12 0.12 0.13 0.15 0.14 0.13 0.13 0.13 0.14 0.15 0.15 0.16 0.16
0.47 0.46 0.47 0.48 0.49 0.43 0.44 0.44 0.46 0.40 0.36 0.31 0.21 0.17 0.09 0.06 0.04 0.05 0.06 0.10 0.06 0.13 0.10 0.16 0.12 0.12 0.12 0.10 0.08 0.10 0.14 0.09 0.13 0.12 0.14 0.14 0.12 0.12 0.14 0.12 0.12 0.10 0.07 0.09 0.08 0.08 0.08 0.11 0.12 0.14 0.15 0.17 0.15 0.11 0.11 0.11 0.14 0.13 0.12 0.11 0.10 0.08 0.08 0.07 0.08 0.09 0.08 0.09 0.10 0.10 0.12 0.09 0.10 0.11 0.13 0.12 0.13 0.15 0.15 0.15 0.15 0.15 0.15 0.15 0.16 0.16 0.17 0.17
0.45 0.44 0.40 0.44 0.45 0.45 0.44 0.44 0.40 0.38 0.29 0.24 0.16 0.11 0.09 0.05 0.04 0.13 0.08 0.09 0.08 0.15 0.16 0.13 0.13 0.12 0.11 0.08 0.09 0.12 0.09 0.11 0.12 0.12 0.14 0.11 0.11 0.09 0.10 0.12 0.13 0.11 0.10 0.09 0.08 0.08 0.07 0.07 0.09 0.12 0.10 0.17 0.15 0.13 0.13 0.12 0.12 0.13 0.13 0.12 0.10 0.09 0.08 0.08 0.08 0.07 0.08 0.08 0.09 0.11 0.09 0.07 0.08 0.09 0.12 0.13 0.14 0.15 0.15 0.16 0.17 0.17 0.17 0.17 0.18 0.17 0.18 0.18
0.47 0.44 0.42 0.40 0.39 0.39 0.39 0.40 0.35 0.36 0.27 0.19 0.13 0.09 0.05 0.05 0.06 0.05 0.07 0.09 0.12 0.13 0.11 0.16 0.10 0.09 0.08 0.10 0.12 0.14 0.13 0.09 0.13 0.11 0.11 0.10 0.09 0.10 0.09 0.10 0.13 0.12 0.11 0.09 0.10 0.09 0.08 0.08 0.10 0.14 0.14 0.16 0.14 0.16 0.15 0.13 0.13 0.14 0.14 0.13 0.11 0.10 0.11 0.09 0.09 0.09 0.08 0.08 0.08 0.08 0.08 0.09 0.09 0.12 0.13 0.14 0.15 0.16 0.16 0.16 0.17 0.17 0.18 0.18 0.18 0.18 0.18 0.19
0.47 0.38 0.38 0.32 0.31 0.33 0.36 0.36 0.35 0.30 0.22 0.15 0.10 0.07 0.05 0.06 0.05 0.09 0.08 0.16 0.14 0.11 0.11 0.11 0.10 0.08 0.08 0.08 0.11 0.11 0.15 0.10 0.11 0.11 0.10 0.10 0.11 0.09 0.11 0.12 0.12 0.13 0.11 0.09 0.10 0.09 0.09 0.07 0.12 0.14 0.15 0.15 0.15 0.16 0.15 0.14 0.10 0.12 0.12 0.10 0.11 0.14 0.12 0.10 0.10 0.10 0.10 0.09 0.08 0.09 0.08 0.09 0.11 0.11 0.13 0.14 0.14 0.15 0.16 0.16 0.17 0.18 0.18 0.18 0.18 0.19 0.19 0.20
0.38 0.36 0.27 0.28 0.28 0.33 0.35 0.35 0.32 0.26 0.20 0.13 0.08 0.06 0.08 0.09 0.11 0.11 0.15 0.13 0.14 0.14 0.11 0.06 0.07 0.07 0.06 0.06 0.08 0.09 0.11 0.13 0.11 0.10 0.08 0.10 0.08 0.11 0.11 0.12 0.16 0.14 0.14 0.12 0.11 0.12 0.09 0.08 0.11 0.12 0.11 0.16 0.17 0.17 0.17 0.16 0.15 0.13 0.10 0.12 0.14 0.14 0.12 0.10 0.08 0.09 0.08 0.07 0.07 0.09 0.08 0.08 0.09 0.08 0.13 0.14 0.13 0.15 0.16 0.17 0.18 0.19 0.19 0.18 0.19 0.20 0.20 0.20
0.31 0.29 0.27 0.25 0.28 0.34 0.35 0.35 0.31 0.24 0.17 0.11 0.07 0.08 0.15 0.09 0.15 0.14 0.19 0.17 0.15 0.14 0.10 0.08 0.07 0.10 0.07 0.08 0.07 0.09 0.11 0.08 0.09 0.10 0.08 0.10 0.08 0.13 0.12 0.12 0.16 0.15 0.15 0.17 0.12 0.12 0.13 0.09 0.10 0.12 0.13 0.15 0.17 0.17 0.15 0.17 0.16 0.13 0.12 0.16 0.11 0.09 0.09 0.11 0.09 0.07 0.07 0.07 0.08 0.08 0.09 0.09 0.10 0.10 0.13 0.13 0.14 0.15 0.16 0.18 0.18 0.18 0.19 0.19 0.20 0.21 0.22 0.23
0.36 0.28 0.18 0.24 0.34 0.35 0.34 0.35 0.27 0.19 0.14 0.08 0.08 0.06 0.11 0.12 0.17 0.16 0.19 0.18 0.16 0.14 0.10 0.10 0.08 0.09 0.10 0.08 0.09 0.10 0.11 0.08 0.10 0.10 0.08 0.10 0.08 0.12 0.12 0.13 0.13 0.17 0.17 0.17 0.14 0.13 0.14 0.10 0.09 0.13 0.13 0.15 0.15 0.14 0.10 0.12 0.16 0.16 0.16 0.14 0.15 0.12 0.10 0.10 0.10 0.11 0.10 0.08 0.09 0.09 0.10 0.09 0.13 0.14 0.16 0.16 0.18 0.18 0.18 0.18 0.19 0.20 0.20 0.21 0.22 0.22 0.23 0.23
0.27 0.18 0.16 0.29 0.35 0.37 0.35 0.31 0.20 0.16 0.11 0.06 0.08 0.08 0.14 0.11 0.15 0.19 0.21 0.19 0.14 0.13 0.12 0.11 0.12 0.10 0.10 0.10 0.11 0.09 0.12 0.11 0.11 0.11 0.10 0.11 0.10 0.14 0.12 0.16 0.14 0.15 0.17 0.17 0.14 0.16 0.12 0.13 0.09 0.10 0.13 0.13 0.10 0.13 0.11 0.12 0.11 0.13 0.13 0.13 0.14 0.14 0.16 0.15 0.14 0.12 0.11 0.10 0.10 0.10 0.10 0.12 0.16 0.19 0.19 0.20 0.21 0.21 0.21 0.20 0.21 0.22 0.23 0.24 0.25 0.25 0.25 0.25
0.28 0.18 0.18 0.30 0.34 0.37 0.33 0.22 0.14 0.11 0.09 0.12 0.13 0.11 0.13 0.12 0.16 0.18 0.21 0.24 0.19 0.24 0.16 0.14 0.13 0.11 0.11 0.11 0.11 0.13 0.12 0.12 0.12 0.11 0.11 0.12 0.12 0.09 0.14 0.15 0.16 0.14 0.17 0.16 0.15 0.15 0.13 0.12 0.10 0.11 0.10 0.10 0.11 0.14 0.14 0.15 0.15 0.15 0.15 0.15 0.16 0.15 0.14 0.13 0.12 0.16 0.15 0.13 0.12 0.11 0.11 0.14 0.18 0.22 0.22 0.22 0.23 0.23 0.23 0.23 0.23 0.24 0.25 0.25 0.25 0.26 0.26 0.26
0.17 0.12 0.15 0.29 0.34 0.31 0.21 0.11 0.12 0.15 0.11 0.09 0.09 0.13 0.12 0.21 0.17 0.17 0.19 0.22 0.20 0.17 0.21 0.17 0.16 0.14 0.14 0.13 0.13 0.13 0.13 0.12 0.12 0.12 0.13 0.11 0.13 0.12 0.13 0.18 0.17 0.17 0.15 0.13 0.14 0.17 0.16 0.14 0.13 0.11 0.12 0.13 0.16 0.19 0.21 0.21 0.21 0.19 0.19 0.17 0.19 0.18 0.17 0.14 0.12 0.13 0.14 0.14 0.14 0.13 0.11 0.12 0.19 0.23 0.24 0.24 0.25 0.24 0.24 0.24 0.24 0.25 0.26 0.26 0.27 0.27 0.28 0.28
0.15 0.12 0.21 0.26 0.31 0.26 0.16 0.11 0.13 0.11 0.10 0.13 0.18 0.17 0.20 0.18 0.17 0.19 0.16 0.19 0.15 0.19 0.16 0.15 0.14 0.13 0.15 0.14 0.14 0.14 0.14 0.12 0.12 0.12 0.12 0.13 0.13 0.15 0.18 0.19 0.19 0.18 0.18 0.16 0.17 0.17 0.20 0.17 0.17 0.18 0.19 0.19 0.18 0.19 0.19 0.18 0.17 0.15 0.16 0.16 0.16 0.14 0.14 0.13 0.13 0.13 0.12 0.12 0.11 0.12 0.10 0.12 0.19 0.24 0.25 0.25 0.25 0.25 0.25 0.25 0.25 0.26 0.27 0.27 0.28 0.29 0.28 0.28
0.17 0.16 0.18 0.26 0.29 0.25 0.13 0.07 0.08 0.10 0.12 0.16 0.17 0.15 0.20 0.17 0.16 0.15 0.15 0.17 0.16 0.16 0.14 0.14 0.15 0.18 0.15 0.18 0.16 0.13 0.15 0.11 0.14 0.13 0.13 0.15 0.14 0.21 0.20 0.20 0.21 0.19 0.21 0.21 0.22 0.26 0.20 0.19 0.15 0.12 0.12 0.11 0.10 0.12 0.12 0.14 0.15 0.14 0.14 0.15 0.16 0.16 0.16 0.16 0.16 0.16 0.12 0.12 0.13 0.12 0.09 0.12 0.21 0.25 0.25 0.25 0.25 0.24 0.24 0.25 0.27 0.26 0.27 0.28 0.28 0.30 0.30 0.30
0.16 0.21 0.19 0.21 0.25 0.21 0.12 0.14 0.12 0.11 0.12 0.12 0.12 0.11 0.13 0.14 0.18 0.18 0.17 0.15 0.20 0.17 0.15 0.14 0.16 0.18 0.16 0.19 0.16 0.17 0.17 0.15 0.13 0.15 0.15 0.15 0.16 0.22 0.24 0.27 0.28 0.26 0.26 0.26 0.23 0.22 0.16 0.14 0.13 0.10 0.08 0.07 0.06 0.07 0.08 0.09 0.11 0.13 0.14 0.16 0.17 0.17 0.16 0.15 0.13 0.13 0.11 0.13 0.14 0.12 0.12 0.16 0.21 0.23 0.23 0.23 0.24 0.23 0.24 0.25 0.26 0.28 0.28 0.27 0.28 0.29 0.30 0.30
0.11 0.07 0.15 0.16 0.20 0.19 0.19 0.21 0.17 0.13 0.12 0.12 0.11 0.12 0.14 0.12 0.16 0.19 0.19 0.17 0.20 0.19 0.19 0.18 0.20 0.19 0.17 0.17 0.15 0.15 0.14 0.18 0.15 0.15 0.19 0.21 0.24 0.25 0.26 0.24 0.23 0.22 0.23 0.23 0.22 0.20 0.14 0.14 0.13 0.12 0.11 0.09 0.11 0.13 0.16 0.18 0.17 0.13 0.13 0.15 0.16 0.17 0.17 0.17 0.16 0.13 0.11 0.14 0.13 0.14 0.15 0.16 0.17 0.19 0.20 0.21 0.22 0.22 0.22 0.22 0.24 0.25 0.27 0.27 0.28 0.28 0.29 0.29
0.14 0.11 0.13 0.10 0.16 0.17 0.14 0.17 0.15 0.15 0.12 0.14 0.10 0.13 0.11 0.12 0.13 0.13 0.21 0.14 0.19 0.18 0.18 0.18 0.18 0.15 0.15 0.16 0.15 0.15 0.18 0.20 0.24 0.24 0.21 0.19 0.18 0.18 0.21 0.20 0.21 0.22 0.23 0.20 0.21 0.18 0.14 0.11 0.13 0.13 0.13 0.13 0.15 0.16 0.17 0.18 0.16 0.16 0.14 0.14 0.16 0.16 0.16 0.15 0.13 0.12 0.16 0.13 0.09 0.14 0.15 0.14 0.15 0.17 0.18 0.19 0.19 0.20 0.21 0.21 0.22 0.23 0.24 0.25 0.25 0.26 0.27 0.27
0.10 0.14 0.18 0.17 0.11 0.09 0.10 0.12 0.16 0.14 0.15 0.16 0.13 0.16 0.12 0.12 0.12 0.10 0.15 0.19 0.19 0.22 0.15 0.16 0.18 0.19 0.19 0.19 0.22 0.21 0.22 0.20 0.19 0.15 0.16 0.16 0.14 0.15 0.15 0.19 0.17 0.22 0.20 0.18 0.20 0.15 0.13 0.11 0.13 0.13 0.11 0.13 0.15 0.15 0.15 0.15 0.15 0.15 0.15 0.15 0.15 0.16 0.15 0.12 0.12 0.14 0.14 0.12 0.10 0.14 0.15 0.14 0.15 0.17 0.18 0.19 0.19 0.19 0.20 0.20 0.22 0.23 0.24 0.24 0.23 0.24 0.24 0.25
0.17 0.17 0.16 0.18 0.10 0.12 0.13 0.15 0.17 0.15 0.15 0.16 0.14 0.14 0.12 0.12 0.11 0.13 0.14 0.15 0.18 0.17 0.19 0.14 0.18 0.22 0.25 0.26 0.22 0.17 0.16 0.12 0.11 0.14 0.13 0.12 0.13 0.12 0.11 0.13 0.19 0.20 0.17 0.17 0.18 0.17 0.13 0.11 0.14 0.12 0.09 0.08 0.10 0.12 0.13 0.13 0.14 0.14 0.14 0.14 0.14 0.13 0.13 0.13 0.13 0.15 0.14 0.13 0.14 0.14 0.14 0.14 0.16 0.17 0.18 0.19 0.19 0.20 0.21 0.22 0.22 0.21 0.22 0.22 0.22 0.22 0.22 0.23
0.12 0.13 0.10 0.16 0.15 0.14 0.16 0.16 0.16 0.14 0.11 0.14 0.11 0.13 0.13 0.13 0.12 0.15 0.17 0.17 0.16 0.19 0.26 0.23 0.24 0.22 0.20 0.19 0.17 0.14 0.14 0.14 0.13 0.10 0.12 0.12 0.11 0.13 0.12 0.13 0.13 0.16 0.17 0.14 0.15 0.17 0.11 0.09 0.12 0.09 0.07 0.05 0.09 0.10 0.10 0.12 0.12 0.11 0.12 0.12 0.14 0.15 0.15 0.14 0.13 0.13 0.13 0.12 0.13 0.13 0.13 0.13 0.17 0.18 0.18 0.19 0.19 0.21 0.20 0.20 0.19 0.20 0.22 0.21 0.21 0.21 0.21 0.22
0.18 0.18 0.16 0.12 0.11 0.14 0.15 0.14 0.14 0.13 0.12 0.13 0.12 0.14 0.16 0.15 0.15 0.19 0.20 0.26 0.24 0.23 0.24 0.20 0.20 0.17 0.17 0.15 0.15 0.13 0.14 0.13 0.12 0.12 0.13 0.13 0.09 0.14 0.12 0.13 0.17 0.12 0.13 0.12 0.13 0.13 0.12 0.08 0.10 0.08 0.05 0.04 0.06 0.07 0.09 0.12 0.12 0.10 0.10 0.12 0.12 0.12 0.10 0.11 0.10 0.13 0.12 0.11 0.12 0.12 0.11 0.12 0.16 0.17 0.18 0.18 0.18 0.17 0.18 0.19 0.18 0.18 0.21 0.20 0.20 0.20 0.20 0.21
0.21 0.22 0.20 0.14 0.11 0.15 0.12 0.15 0.15 0.14 0.12 0.16 0.16 0.16 0.18 0.20 0.22 0.23 0.20 0.27 0.27 0.24 0.20 0.18 0.17 0.14 0.12 0.12 0.10 0.11 0.13 0.13 0.13 0.14 0.15 0.17 0.19 0.17 0.18 0.17 0.17 0.13 0.11 0.11 0.13 0.09 0.08 0.07 0.06 0.07 0.04 0.03 0.05 0.08 0.08 0.08 0.09 0.08 0.10 0.10 0.10 0.11 0.13 0.13 0.13 0.14 0.15 0.15 0.12 0.10 0.10 0.14 0.15 0.16 0.15 0.15 0.16 0.16 0.16 0.18 0.17 0.17 0.19 0.19 0.19 0.19 0.19 0.19
Wind_Speed
6 6 6 6 6 6 6 6 6 6 6 6 7 7 7 7 7 7 7 6 6 6 6 6 6 7 7 7 7 7 8 7 7 8 8 8 9 10 10 10 10 10 10 10 10 10 10 10 11 11 11 12 13 13 13 13 13 14 14 15 16 16 16 16 17 18 18 19 20 19 19 19 20 20 20 20 21 22 22 23 23 24 25 25 25 25 24 23
6 5 5 5 5 5 5 5 5 5 6 6 7 7 7 7 7 7 7 7 7 7 6 6 6 6 7 7 7 7 6 6 6 7 7 7 9 9 10 10 10 10 11 11 11 11 11 11 12 12 12 13 13 13 14 14 14 14 15 16 17 16 17 17 18 19 18 19 19 19 20 20 21 20 20 21 22 22 23 23 23 26 27 27 27 26 25 24
5 5 5 5 5 5 5 6 6 6 6 6 7 7 7 7 7 7 7 7 7 7 6 6 6 6 6 6 7 7 6 6 7 7 8 8 10 10 11 11 11 11 12 12 12 12 12 12 12 12 13 14 14 14 14 15 15 15 15 17 18 18 18 19 19 20 19 19 19 19 20 20 22 21 21 22 23 22 23 23 23 27 29 29 28 27 27 26
5 5 4 4 5 5 5 6 6 6 7 7 7 7 7 7 7 7 8 8 7 7 7 6 6 6 6 7 7 7 7 7 8 8 9 10 11 11 12 12 12 12 12 12 12 12 12 12 12 13 13 14 15 14 14 15 15 16 16 17 18 17 18 19 20 20 20 19 19 19 19 21 22 22 22 22 23 23 23 25 26 28 29 28 27 27 28 28
5 4 4 4 5 5 5 6 6 6 6 6 6 7 7 7 8 8 8 8 7 7 7 6 6 6 7 7 7 7 6 7 8 8 9 11 11 12 12 12 12 12 12 12 12 12 12 12 12 13 13 14 14 14 16 16 15 16 17 18 18 17 19 20 20 20 20 19 20 20 20 21 21 22 23 22 23 23 23 26 27 29 29 27 27 27 27 28
5 4 4 4 4 5 5 6 6 6 6 6 6 6 7 7 8 8 8 8 7 7 7 6 6 6 6 6 7 6 6 7 8 8 10 11 12 12 12 12 12 12 12 12 12 12 12 12 12 13 13 14 14 15 16 17 16 17 18 18 19 19 19 20 20 20 21 21 21 21 22 22 22 23 25 24 26 26 25 26 27 28 28 26 26 27 27 28
4 3 3 4 4 5 5 6 6 6 6 7 7 7 7 7 7 7 8 7 7 7 7 7 6 6 6 6 6 6 7 9 9 10 11 11 12 12 11 12 12 12 12 12 12 11 12 12 13 13 13 14 15 15 17 17 17 18 19 19 20 20 21 21 21 21 21 22 23 23 23 23 24 25 24 25 28 29 28 27 28 28 27 26 26 27 28 29
4 3 4 4 5 5 5 6 6 7 7 7 7 7 7 7 7 7 7 7 7 7 7 7 6 6 6 6 6 7 8 10 10 10 11 11 12 12 11 11 11 12 12 12 12 12 12 13 13 14 14 15 16 16 17 18 18 19 20 20 20 20 22 23 23 23 23 24 24 24 25 26 26 26 26 27 29 30 29 29 29 28 27 28 28 29 29 30
3 4 4 5 5 5 5 6 6 7 7 7 7 7 7 7 7 7 7 7 7 7 7 6 6 6 6 6 6 7 9 9 9 10 11 11 11 11 11 11 11 12 12 12 13 13 13 14 15 15 15 16 16 17 17 18 19 19 19 20 20 21 22 23 23 23 24 24 24 25 27 27 27 27 27 28 28 29 29 30 30 29 29 30 30 30 30 31
3 4 4 5 5 5 5 6 6 6 6 6 7 7 7 7 7 7 7 7 7 7 7 6 6 6 6 6 6 7 8 9 9 10 11 11 10 10 11 11 11 11 12 13 13 13 14 14 15 15 16 16 16 17 17 17 19 19 19 21 21 22 22 22 23 23 24 25 25 25 27 27 26 26 26 25 26 26 27 28 29 29 30 31 31 31 31 31
3 4 4 4 4 4 4 5 5 5 5 5 6 6 6 6 7 7 7 6 6 7 6 6 6 6 6 6 6 7 8 9 10 10 10 10 10 11 11 11 12 12 12 13 14 14 14 14 14 15 16 16 16 17 17 17 18 19 19 21 22 22 22 22 22 23 23 23 24 24 27 27 25 24 26 27 27 26 26 28 28 29 30 30 30 30 30 31
3 3 3 3 3 3 3 3 4 4 4 5 5 5 5 6 6 6 6 6 6 6 6 6 6 6 6 6 7 8 9 9 9 10 10 11 11 12 12 12 12 13 13 13 14 14 14 15 14 15 16 16 16 16 17 17 17 18 18 20 22 21 22 22 21 22 21 22 22 22 26 26 22 24 28 29 27 26 27 28 28 29 30 30 29 30 30 31
3 3 3 2 2 2 2 2 3 3 3 4 4 5 5 5 5 5 5 5 5 5 5 6 6 6 6 7 8 9 9 9 9 9 10 11 12 12 12 12 13 13 13 13 14 14 14 15 14 15 16 15 16 16 16 17 17 18 18 19 21 21 21 21 19 20 20 21 21 21 25 25 21 24 27 26 26 26 27 28 29 29 29 30 30 30 30 31
2 2 2 2 2 1 1 1 2 2 3 3 4 4 4 4 4 4 4 4 4 4 5 5 5 5 6 7 8 8 9 9 9 10 11 12 12 12 12 12 13 13 13 13 14 14 14 14 14 14 15 15 16 16 16 17 17 18 19 18 19 19 20 20 19 18 19 20 19 19 24 25 21 23 24 24 24 24 26 28 28 29 29 30 30 30 31 30
2 1 1 1 1 2 1 1 2 2 2 3 3 3 3 3 3 4 4 4 4 4 4 5 5 5 6 8 9 8 8 9 10 11 12 12 12 12 13 13 13 13 13 13 13 13 13 13 14 14 15 15 15 15 16 17 17 17 18 18 18 17 19 20 18 17 18 19 18 17 22 24 22 21 21 21 21 21 24 26 26 27 28 28 29 30 30 30
1 1 1 1 1 2 2 1 1 1 2 2 2 2 2 3 3 3 3 3 3 4 4 5 6 6 6 8 8 8 8 9 11 12 12 12 12 12 13 14 14 13 13 13 13 13 13 13 13 14 14 14 14 14 15 16 17 16 16 17 18 17 19 19 18 17 17 17 18 18 21 23 22 21 19 18 19 20 22 25 26 27 27 28 28 28 29 29
1 1 1 1 2 2 2 1 1 1 1 2 2 2 2 2 3 3 3 4 4 5 5 6 6 7 7 8 8 8 9 10 11 12 12 12 12 12 13 13 13 13 13 13 13 13 14 13 13 14 13 14 13 13 15 16 17 16 16 16 17 17 18 19 18 17 16 17 18 19 21 24 24 23 23 21 20 22 24 26 27 28 28 28 28 28 28 29
1 1 1 1 2 2 2 2 1 1 1 1 1 1 2 2 3 3 4 5 6 6 7 7 7 7 8 8 8 9 10 11 12 12 12 12 12 12 13 12 12 13 12 12 13 12 13 13 12 13 14 14 13 12 13 15 15 15 16 16 17 17 17 18 18 17 17 18 19 19 22 25 25 24 25 23 21 23 25 26 27 28 28 27 27 27 27 28
1 1 1 2 2 2 2 1 1 2 2 1 1 1 2 3 3 4 5 6 7 7 7 7 7 7 8 9 9 10 11 11 11 11 11 12 12 12 12 12 12 12 11 12 13 12 12 13 12 13 13 13 12 11 13 14 13 14 15 15 16 17 17 16 17 17 17 18 19 19 21 24 24 24 24 23 20 22 25 25 26 26 26 26 26 26 26 27
1 1 2 2 3 3 3 2 2 2 2 2 2 3 3 4 5 6 7 7 7 7 7 8 8 8 9 10 10 11 11 11 10 10 11 12 12 12 12 12 12 11 11 11 12 12 12 12 12 12 12 12 12 12 12 13 12 13 14 15 16 17 17 16 16 17 16 18 19 19 21 23 24 24 24 23 20 20 22 23 24 24 25 25 25 25 26 26
2 2 3 3 3 4 4 3 3 3 4 4 4 4 5 5 5 6 7 7 8 8 9 9 9 9 10 10 10 10 10 10 10 10 12 12 12 11 12 11 11 11 12 11 12 12 12 12 12 12 12 12 12 11 11 12 12 14 14 16 17 16 18 17 16 18 17 17 19 19 22 24 24 24 24 22 20 20 21 21 22 24 24 24 24 25 25 25
2 3 3 4 4 4 4 4 4 4 5 5 5 5 6 6 6 7 6 7 9 8 9 10 9 10 10 9 10 9 9 10 10 11 12 12 11 11 11 10 10 11 12 11 11 13 12 13 13 12 11 11 12 11 11 12 13 14 14 16 17 16 18 19 17 18 17 18 20 21 23 24 25 24 22 21 19 20 21 20 21 22 22 23 23 24 24 24
3 3 4 4 4 4 5 5 5 5 5 6 6 6 7 7 7 7 6 7 9 9 8 9 9 9 9 9 9 9 9 9 10 11 12 12 11 11 10 10 10 11 12 10 10 12 12 13 13 11 10 10 12 12 12 13 14 14 15 16 18 17 17 19 19 19 19 19 22 23 24 25 24 21 20 19 18 19 20 21 21 22 22 23 23 23 23 23
3 4 4 4 4 5 5 5 6 5 5 6 6 6 6 6 6 7 7 8 9 9 8 8 8 8 8 9 9 9 9 9 10 11 12 11 10 10 10 10 10 11 11 10 10 12 13 13 11 11 11 11 12 13 13 14 16 16 16 17 19 18 18 19 20 21 21 21 22 23 24 23 20 19 19 17 17 19 20 21 23 22 22 22 22 22 22 23
4 4 4 4 5 5 5 5 6 6 5 6 6 6 5 6 6 7 7 8 8 8 7 7 7 8 8 9 9 9 10 10 10 11 12 11 10 11 11 10 10 11 11 11 11 13 15 13 11 11 13 13 13 15 15 15 17 18 17 18 19 19 19 20 21 22 22 22 21 21 22 22 20 20 21 19 19 20 20 21 23 23 22 22 23 23 22 22
4 4 4 5 5 5 4 5 6 5 5 6 6 5 5 6 7 7 7 7 8 8 6 6 7 8 8 9 10 10 10 10 10 11 11 11 10 11 11 11 12 12 12 12 12 14 14 13 12 12 13 14 15 17 17 15 17 19 19 18 19 19 19 20 22 22 21 22 22 21 21 24 24 23 22 20 20 22 21 22 23 24 24 23 23 24 23 22
4 5 5 5 5 5 5 5 6 5 6 6 6 6 6 6 7 7 7 7 7 7 6 7 7 8 9 10 10 10 10 11 12 12 11 11 12 11 12 13 12 13 13 13 15 14 13 14 15 14 14 15 16 18 17 15 16 19 20 18 18 19 20 21 22 22 23 25 25 22 21 25 27 25 23 20 22 24 23 23 23 24 25 24 24 24 23 22
4 5 5 6 6 6 6 6 6 6 6 6 6 6 7 7 7 7 6 5 7 6 7 8 8 9 10 10 10 10 11 13 12 11 11 12 13 12 13 14 12 14 14 13 16 17 15 15 16 15 16 17 18 19 17 16 18 21 20 19 20 20 21 22 22 23 25 25 26 25 22 23 27 26 23 21 23 25 24 24 24 24 25 25 24 24 23 23
5 5 5 6 6 6 6 6 6 6 7 6 6 7 7 7 8 7 5 6 7 7 7 8 9 10 11 11 11 11 12 12 11 12 13 13 13 13 14 14 13 14 16 15 17 18 17 17 17 16 17 19 19 19 19 18 20 21 20 21 22 22 22 23 23 24 25 24 27 28 22 22 27 26 23 23 24 25 25 24 23 24 25 26 26 25 24 24
5 6 6 6 6 7 7 7 6 7 7 7 7 7 7 7 7 6 6 7 7 8 9 9 10 10 11 12 13 12 12 12 13 14 14 13 14 14 14 15 14 15 17 18 19 20 19 18 18 18 19 19 19 20 21 21 21 21 21 22 24 24 24 25 25 24 23 24 28 28 23 23 26 24 23 26 25 25 25 25 24 24 25 27 27 27 27 27
6 6 7 7 7 7 7 7 7 7 7 7 7 7 7 8 6 5 7 8 8 9 9 9 10 11 11 12 13 13 13 14 14 14 14 14 15 15 15 15 16 17 19 20 20 21 20 19 20 21 20 19 19 21 22 22 22 22 23 24 25 25 24 25 25 23 22 25 27 27 25 24 27 28 29 30 29 27 26 27 28 27 28 29 29 28 28 28
6 6 6 6 7 7 7 7 7 6 6 6 6 7 7 7 8 7 8 10 9 9 9 10 12 12 12 13 14 14 14 15 15 14 14 15 15 16 15 16 17 19 21 21 21 23 22 21 21 21 21 20 20 22 23 24 23 23 24 24 24 24 24 24 25 23 24 27 27 27 26 26 30 34 34 33 32 29 27 28 29 29 30 31 30 30 29 28
6 6 5 6 6 7 7 7 7 6 7 6 6 7 6 6 8 8 9 10 9 10 11 12 13 13 14 15 15 15 14 15 15 14 15 16 16 17 17 17 17 19 21 22 23 24 24 23 21 21 22 22 20 22 23 24 24 23 24 23 22 22 24 25 26 26 27 29 29 28 27 28 32 32 31 31 32 30 28 29 29 30 30 31 31 30 29 27
5 5 5 5 6 6 7 7 7 7 7 6 6 7 7 7 9 9 10 11 11 12 12 13 14 15 14 15 15 15 14 15 15 15 16 17 18 18 18 19 18 18 20 22 23 22 23 25 23 22 23 22 23 24 24 24 24 25 25 23 24 24 24 26 27 27 30 31 30 29 27 28 30 30 29 31 32 31 31 31 31 31 31 30 30 29 27 27
4 4 5 5 6 6 7 7 8 7 7 7 7 7 7 9 10 9 11 12 12 13 14 13 14 15 15 14 14 14 14 16 16 17 18 18 18 19 19 19 18 18 18 20 22 22 23 26 25 24 24 23 25 26 25 25 25 26 26 25 27 27 26 28 28 29 30 30 31 31 30 32 32 32 32 32 31 31 32 32 32 32 31 29 28 28 28 28
4 5 5 5 6 7 7 7 7 6 6 6 7 8 9 10 10 10 11 12 12 13 15 15 14 14 15 15 15 16 16 17 18 19 19 18 19 19 18 18 19 19 18 20 22 22 24 28 27 26 27 26 27 28 27 27 27 27 27 27 29 29 28 29 31 30 28 29 32 31 33 36 34 33 33 32 32 33 33 33 31 31 31 29 29 30 30 29
5 5 5 6 6 7 6 6 6 6 6 6 7 9 10 10 10 10 11 12 12 13 14 15 15 14 15 16 16 18 18 18 19 19 20 20 19 17 18 19 20 20 20 21 23 23 25 29 30 28 29 29 28 29 30 29 28 27 29 31 31 30 29 29 29 30 29 30 32 31 34 37 33 33 35 35 36 35 34 33 31 31 31 31 31 32 31 30
5 5 5 6 7 6 6 6 6 6 6 7 8 10 10 9 10 10 11 12 13 13 13 14 15 15 15 17 18 18 18 19 19 20 20 20 19 18 19 21 20 21 22 22 24 25 25 29 32 30 29 30 30 30 31 31 30 30 31 33 31 30 31 30 29 30 30 31 32 32 34 34 32 34 36 36 36 35 35 34 33 33 33 33 35 34 33 32
5 5 6 7 6 6 6 6 6 6 7 8 9 9 9 10 11 11 12 12 13 13 14 15 15 16 16 17 18 19 19 19 20 20 20 20 20 20 20 21 21 23 25 24 25 27 26 28 31 31 30 32 32 31 31 32 31 31 33 34 33 31 32 31 30 30 30 31 32 33 34 32 31 33 35 35 36 35 36 35 35 35 35 36 36 34 33 32
6 5 6 7 6 6 7 6 6 7 7 8 9 9 9 11 11 11 12 13 13 14 14 15 16 17 18 17 18 19 19 19 19 20 20 20 21 21 21 21 23 25 26 26 26 27 28 27 31 33 32 33 34 32 32 32 32 32 33 34 33 32 31 31 32 32 31 31 31 32 33 31 30 33 34 35 36 36 36 36 35 36 36 35 35 34 33 32
5 5 6 7 7 7 6 6 7 7 7 8 9 9 10 10 11 12 13 13 13 14 14 15 15 16 18 18 19 19 20 20 20 20 20 20 21 22 22 24 25 26 27 28 27 28 28 28 32 35 35 35 36 34 33 33 33 32 32 32 32 31 31 32 33 33 32 31 30 31 33 32 32 34 34 35 35 36 36 36 35 36 35 35 35 34 34 34
5 5 7 7 7 6 5 6 8 7 7 8 9 9 10 11 11 12 13 13 14 14 15 15 15 16 17 18 19 19 20 22 21 20 20 21 22 23 25 26 26 26 27 29 29 29 29 30 33 35 36 37 37 35 34 32 30 30 30 31 31 31 31 32 33 33 33 34 33 32 32 33 34 34 34 34 35 35 36 37 36 36 36 37 37 36 36 36
4 5 6 6 6 5 5 6 8 8 8 9 9 10 10 11 11 12 13 14 14 14 15 16 16 17 17 18 19 19 21 22 21 20 21 23 24 25 27 27 28 28 29 30 31 31 31 31 32 35 37 37 36 33 31 29 28 29 31 32 32 32 32 33 34 34 34 37 37 34 33 34 33 33 33 33 34 35 36 37 38 38 37 38 38 38 37 38
4 5 5 6 6 5 5 6 7 8 9 10 10 10 11 11 11 12 14 14 14 14 15 17 17 17 18 18 19 21 22 22 22 23 23 24 25 27 27 28 29 30 30 31 31 31 31 31 31 34 36 37 36 32 31 32 32 33 33 33 33 35 35 35 35 35 35 37 38 35 34 33 31 31 33 33 34 35 36 37 38 38 38 39 39 38 38 39
4 5 5 6 6 5 5 6 6 7 9 10 10 11 12 12 12 13 14 15 15 15 16 17 17 18 19 20 21 22 22 22 23 25 25 25 27 28 28 30 31 31 30 30 30 30 31 31 31 31 33 34 34 33 33 36 37 36 35 35 36 37 36 35 35 34 33 36 36 35 34 33 33 35 36 36 37 38 38 39 39 39 38 39 39 39 39 39
4 5 6 7 7 6 6 7 7 7 9 10 11 11 12 13 14 14 14 15 16 16 17 18 18 19 20 21 22 23 23 23 24 25 26 27 28 28 30 31 30 30 30 30 30 29 30 30 30 30 32 34 34 35 35 37 38 38 37 37 37 36 35 33 32 32 33 35 36 34 34 35 37 38 38 38 39 39 39 40 40 40 38 38 38 38 38 38
4 5 6 7 7 7 7 8 9 9 10 10 11 12 13 14 15 15 15 16 17 17 17 18 20 20 21 23 23 24 24 25 25 26 27 28 27 28 30 30 28 29 30 31 31 30 30 31 30 30 33 34 34 36 37 36 35 35 35 36 35 35 34 32 32 33 34 34 34 34 35 35 35 36 37 38 38 38 38 39 40 40 39 38 38 38 37 37
5 5 6 6 7 8 8 9 9 9 11 11 11 12 14 15 16 16 16 17 17 18 19 19 21 21 22 23 23 24 26 26 26 26 26 28 28 29 30 28 27 30 32 32 31 29 28 30 30 32 35 36 34 35 35 33 32 31 32 34 34 34 33 32 32 33 33 32 33 35 36 34 34 35 36 36 37 37 37 38 39 39 37 37 37 38 37 36
5 5 6 7 7 7 9 10 10 9 11 12 12 13 14 15 17 17 17 18 18 19 19 20 22 23 22 22 22 24 25 26 27 27 27 28 29 30 30 29 29 32 32 31 30 29 28 30 31 33 37 37 34 33 33 31 30 30 32 33 33 32 31 30 31 32 32 33 33 35 36 34 33 34 35 35 36 37 36 37 38 38 37 36 37 37 37 37
5 5 7 7 8 9 10 11 10 10 12 13 13 14 15 15 17 18 18 18 19 20 20 20 23 24 23 21 22 23 25 25 27 28 27 29 30 29 28 28 28 31 31 30 30 30 29 30 31 33 36 36 32 32 33 30 28 30 31 30 30 30 29 29 30 31 31 32 33 34 34 33 31 32 34 35 36 37 37 37 37 38 37 36 37 37 38 38
6 6 6 6 9 11 11 12 11 11 13 14 14 15 16 16 18 18 18 18 18 19 21 22 23 23 22 22 22 23 25 25 27 28 28 28 28 27 27 28 28 30 30 29 30 30 30 31 32 31 33 34 32 33 34 31 28 28 29 29 30 30 29 29 30 31 31 31 32 33 32 32 32 34 36 36 36 38 38 37 38 39 37 37 37 38 38 39
6 7 7 7 9 12 12 12 13 12 13 15 15 16 16 17 18 18 17 18 18 19 21 21 22 22 22 22 23 24 27 28 28 28 27 26 26 26 26 27 27 27 29 29 29 29 29 30 31 30 31 33 33 34 35 32 28 27 27 28 30 30 30 30 31 31 31 30 31 32 32 33 34 36 37 37 37 38 39 38 39 40 38 37 38 37 38 40
Wind_Direction
188 193 194 196 199 201 203 206 211 218 227 231 233 231 231 232 233 235 237 240 244 247 250 253 255 254 252 252 256 264 268 270 276 280 279 282 290 295 297 297 297 296 295 294 291 285 285 284 281 281 281 282 283 281 281 278 275 275 275 272 271 271 271 271 272 274 277 278 277 275 272 270 274 272 270 271 270 268 269 268 267 267 265 264 266 267 266 263
187 192 195 199 203 206 208 211 215 223 229 233 234 231 230 229 230 233 236 240 243 245 246 247 249 249 248 250 254 263 269 273 281 283 280 286 296 299 300 299 296 295 295 294 291 284 282 282 281 282 284 284 283 283 282 279 274 273 275 275 273 271 272 272 273 275 277 278 277 277 275 270 272 273 272 273 272 272 271 270 269 269 268 266 265 265 262 260
192 197 200 205 211 214 215 217 222 228 230 231 229 228 229 229 230 232 234 237 240 242 243 246 250 253 255 253 256 264 270 277 284 283 282 289 296 298 300 299 295 294 294 292 289 285 281 281 280 283 286 285 283 282 281 281 277 275 275 277 277 275 278 277 276 275 275 278 278 278 276 271 271 273 272 272 273 273 269 269 269 268 268 267 265 263 261 259
200 205 211 218 223 223 224 226 230 233 233 231 229 229 229 231 232 232 234 236 237 240 244 250 255 261 262 257 259 264 274 285 283 279 286 293 298 300 300 298 295 294 294 293 290 287 285 284 284 286 287 286 286 285 282 279 279 279 276 277 278 278 281 280 278 276 276 278 277 277 277 275 273 272 271 272 274 274 269 268 267 267 269 268 267 264 261 259
207 214 222 229 234 236 237 236 238 238 235 234 233 234 234 234 234 234 236 237 239 242 248 254 258 263 263 257 259 267 281 291 286 284 292 297 299 301 300 299 297 295 296 294 291 289 287 285 287 289 288 287 287 288 284 279 280 281 278 277 277 277 280 281 281 279 277 278 278 277 277 277 276 273 270 269 271 273 271 270 268 268 270 269 267 265 262 260
214 221 229 236 243 247 246 243 242 242 240 238 237 238 238 237 235 235 236 238 241 244 250 255 259 263 262 257 261 273 280 283 288 292 296 299 301 302 300 299 298 297 297 295 292 290 290 289 289 289 290 290 286 284 284 283 282 282 283 282 280 277 278 282 284 280 279 279 278 278 278 279 278 277 273 267 268 271 272 272 271 271 271 268 266 265 264 261
216 226 237 248 255 257 254 246 243 244 243 241 239 238 238 237 235 234 234 237 240 243 249 254 260 263 262 262 266 277 279 279 288 293 297 301 302 301 300 300 299 298 298 296 294 292 292 293 290 288 291 293 288 284 286 287 284 282 284 285 283 280 278 282 284 282 281 279 278 280 281 280 276 278 278 271 269 272 272 273 273 273 272 269 267 266 264 262
217 235 250 258 262 262 256 246 243 243 242 241 239 238 236 235 235 235 234 235 239 243 248 251 259 262 262 266 268 279 283 281 288 293 298 302 301 300 299 301 302 300 298 296 294 292 293 293 289 289 291 292 288 287 289 290 287 282 283 286 285 283 282 284 284 283 283 281 281 281 280 278 276 279 280 275 274 274 273 273 273 273 271 269 267 266 265 264
223 247 259 264 263 264 258 249 244 242 241 238 237 237 236 235 235 237 236 237 240 243 248 252 260 262 265 270 274 282 283 283 290 296 300 302 301 300 299 302 304 303 300 297 296 293 294 293 291 291 290 291 289 289 291 290 288 284 284 287 287 287 287 287 284 284 285 283 283 282 281 281 281 282 281 277 277 277 275 273 272 271 270 269 268 266 265 264
231 255 265 267 265 266 261 252 245 239 239 236 234 235 235 234 235 238 239 239 241 245 251 255 260 263 267 272 276 281 284 289 296 298 301 303 302 302 302 303 304 305 301 298 298 295 295 294 294 294 292 293 291 291 292 289 289 289 289 289 288 289 290 288 285 285 286 284 283 282 282 283 284 284 283 281 281 280 277 274 273 271 270 270 269 268 266 265
237 259 268 271 269 267 263 252 242 235 234 233 232 231 231 233 234 238 239 240 244 248 253 257 259 261 266 272 270 275 287 296 299 301 303 305 305 301 299 299 302 304 302 301 298 296 297 295 295 298 296 295 294 294 292 290 292 294 293 292 291 293 292 288 287 287 287 287 284 283 283 284 285 284 281 281 282 281 277 277 276 273 272 271 270 269 268 267
241 261 271 274 268 265 262 249 234 227 227 226 225 226 227 230 231 234 236 240 245 249 254 256 256 259 267 277 271 275 290 297 300 304 306 306 303 299 297 298 301 303 303 304 301 299 299 298 297 298 296 296 298 298 295 294 296 296 297 295 293 298 295 290 290 290 289 288 287 288 288 285 284 282 280 281 283 282 280 279 277 275 274 273 272 271 269 268
241 260 274 274 262 254 249 233 217 213 215 216 219 221 223 225 225 229 233 239 245 249 252 252 255 261 270 278 276 280 291 295 299 305 307 307 304 301 299 298 301 303 304 304 302 302 301 300 299 297 297 299 299 298 298 301 300 296 298 297 296 300 297 292 293 293 291 290 290 293 291 288 286 283 282 284 284 283 281 279 278 277 275 274 273 272 270 269
235 256 275 268 242 224 216 201 189 193 199 204 210 214 217 219 220 224 231 237 241 247 249 250 258 267 273 278 282 286 290 293 299 305 306 308 308 305 301 301 303 303 304 304 303 305 305 303 303 302 301 301 300 300 303 306 304 299 300 301 300 300 296 295 295 293 293 293 293 294 290 290 294 290 287 288 286 283 282 281 280 279 277 276 274 272 271 269
224 249 266 247 210 196 191 177 165 174 180 188 195 200 207 210 216 223 227 229 234 244 251 258 267 273 280 284 286 289 290 293 300 304 306 309 311 308 304 304 304 304 304 304 305 306 306 306 306 306 302 303 305 304 305 307 307 305 302 302 303 299 297 300 297 291 294 297 296 294 291 293 297 296 293 291 288 285 284 285 285 283 280 277 275 273 272 270
208 217 214 198 187 182 176 162 156 166 173 176 179 186 195 202 214 222 224 227 238 255 263 271 275 278 284 289 291 291 291 295 301 304 306 311 311 308 308 307 305 305 304 304 305 306 309 310 308 307 305 306 308 308 309 308 307 308 304 301 301 300 302 305 302 297 299 300 298 294 293 296 300 300 299 295 291 289 288 288 288 285 282 279 278 275 273 272
188 192 196 189 184 181 175 164 163 166 169 171 176 190 199 209 220 224 230 241 254 269 276 276 280 284 285 290 293 292 292 296 302 304 306 310 311 310 311 310 307 307 307 306 306 306 310 312 308 307 310 310 309 311 312 308 305 308 308 304 302 301 302 304 305 306 305 301 298 296 293 295 297 298 297 294 292 291 289 288 287 285 284 282 280 278 276 274
181 195 202 198 192 187 184 181 187 190 187 187 191 203 212 223 233 239 250 261 269 279 282 278 284 289 289 294 294 292 295 298 302 304 305 309 312 312 312 310 308 308 311 310 308 309 310 313 311 310 313 314 313 313 307 303 305 307 306 306 306 306 303 303 305 308 310 303 299 300 297 295 297 298 296 294 292 290 287 286 286 285 285 284 282 280 278 275
192 208 214 217 210 201 200 206 223 219 207 200 210 229 246 259 266 267 267 271 274 279 281 278 281 282 285 295 296 295 298 299 302 304 306 309 310 311 313 313 311 310 313 311 310 314 314 314 315 312 311 311 308 304 299 299 303 305 305 306 307 308 306 305 306 309 311 307 302 299 299 299 301 300 299 299 296 289 286 286 287 287 285 284 283 281 279 277
217 239 241 239 229 220 221 234 249 234 221 232 260 273 279 283 288 285 279 276 271 271 277 278 279 282 287 294 297 300 302 301 303 305 309 311 310 312 313 315 316 315 315 311 310 316 318 313 310 306 304 302 300 300 303 306 309 311 311 309 307 307 308 312 312 311 312 309 305 304 303 303 302 302 302 302 300 293 289 290 289 288 286 285 283 282 280 278
238 259 259 252 239 233 234 245 259 247 241 254 268 276 279 279 285 287 284 281 276 275 280 280 280 284 288 291 297 303 305 304 304 306 311 313 314 312 310 316 319 314 314 312 310 316 317 310 306 302 300 303 305 308 313 315 314 314 311 309 310 306 306 313 314 312 314 309 309 313 310 305 304 304 304 305 303 296 293 293 292 289 288 287 285 283 282 281
255 268 268 258 244 241 242 250 264 261 258 265 270 277 280 278 279 283 285 285 283 281 282 282 283 286 289 291 297 304 306 307 306 305 311 315 316 312 310 318 316 308 313 316 313 317 315 306 304 304 308 317 319 317 317 315 313 313 311 310 310 308 310 313 314 315 314 308 310 316 313 307 306 307 306 305 302 298 295 294 293 292 291 289 287 286 285 285
265 274 273 262 249 247 249 255 266 270 267 269 272 278 283 282 281 287 292 290 289 288 284 283 284 287 292 294 297 304 307 305 304 306 313 316 314 313 311 315 313 310 315 314 308 311 312 307 307 309 314 320 319 316 316 314 312 309 308 308 306 309 312 309 311 313 310 307 310 313 310 307 309 311 310 306 302 302 300 297 297 295 292 290 290 291 289 287
270 279 273 263 254 250 253 261 270 271 270 273 277 278 281 285 283 290 297 293 293 294 285 280 284 286 290 295 299 304 304 301 300 305 313 316 312 311 311 312 313 311 309 309 306 302 303 306 312 317 315 313 312 311 310 308 308 307 303 302 303 306 305 302 308 311 308 309 311 312 309 306 311 317 316 314 310 307 305 303 302 299 293 293 295 294 291 288
274 277 270 262 255 251 256 267 271 268 271 281 282 277 282 287 286 293 300 298 296 296 289 283 289 290 290 297 301 302 302 301 299 302 310 314 309 309 311 310 311 308 305 308 309 303 304 307 312 315 315 312 308 306 305 301 306 309 303 297 298 303 303 304 310 311 311 311 310 315 312 304 309 315 314 318 317 311 310 308 304 301 297 296 296 295 292 290
276 273 268 261 253 251 259 273 273 267 275 284 279 277 285 288 291 298 302 301 296 292 291 289 294 297 296 299 302 303 305 303 301 303 308 309 307 307 308 307 310 308 302 306 308 305 308 312 313 311 310 310 306 304 303 301 306 308 305 302 301 304 306 307 310 309 308 305 305 312 309 300 304 309 311 318 318 313 313 309 304 302 299 296 297 297 294 291
276 272 267 261 254 251 262 276 277 269 276 283 277 278 287 289 294 300 304 307 300 291 291 293 297 302 299 299 302 303 303 304 306 306 306 307 307 307 304 304 308 305 303 307 308 306 307 311 313 311 309 307 304 304 302 301 304 302 303 307 307 306 305 303 305 304 302 302 303 305 302 297 298 302 310 318 317 314 314 309 305 303 300 297 298 299 296 293
278 272 267 262 255 254 266 277 278 272 275 282 282 281 286 292 295 300 305 304 299 295 295 297 299 302 303 303 304 300 297 303 307 303 305 307 306 306 303 299 299 299 302 303 301 303 305 304 302 303 306 303 301 302 299 297 300 299 301 305 306 305 302 302 303 301 302 305 302 302 301 297 295 297 307 316 314 312 311 308 307 306 303 300 299 298 296 294
283 275 269 263 257 259 270 277 280 278 276 283 289 283 284 293 297 303 303 290 295 299 296 301 301 302 309 308 303 300 298 301 301 300 305 306 303 306 303 299 300 301 301 300 297 301 305 302 299 301 302 300 301 303 300 296 298 299 302 305 307 306 304 304 302 301 304 301 297 298 297 295 296 297 305 314 313 309 308 307 306 304 303 302 300 299 298 296
287 278 270 266 260 262 272 280 285 285 282 283 285 284 287 295 301 309 298 285 296 302 296 299 301 304 314 312 304 303 299 298 300 303 305 303 304 308 304 301 305 304 303 303 299 300 304 304 302 302 301 300 303 305 303 301 300 300 303 304 305 305 304 303 301 301 303 297 295 298 292 290 296 297 303 309 310 307 307 307 306 304 304 303 302 302 301 298
288 279 272 268 263 263 271 279 283 287 288 282 281 287 292 296 299 296 285 285 297 303 301 303 305 310 317 312 304 304 302 300 302 304 304 304 305 308 307 304 305 306 306 306 302 302 304 302 301 302 302 304 306 305 304 303 301 301 302 303 303 304 304 304 302 302 299 295 297 300 295 289 288 293 303 306 306 309 308 305 304 303 302 303 303 304 302 299
289 280 273 269 265 266 270 274 278 287 290 284 284 290 292 297 294 281 284 296 301 302 303 304 306 310 313 309 302 301 302 301 303 304 302 304 305 303 303 301 302 305 305 303 303 304 301 298 301 304 303 301 303 304 304 303 303 301 300 302 304 305 305 302 300 299 294 293 297 299 297 291 287 293 302 303 304 309 309 304 302 301 302 304 306 307 305 302
288 279 274 272 269 269 271 275 279 282 287 287 287 293 299 298 287 280 290 298 297 300 303 303 305 308 308 307 303 301 301 299 303 306 302 304 306 303 302 302 301 302 301 300 304 305 303 302 304 304 302 299 298 300 301 300 301 299 298 299 299 302 302 298 297 298 296 295 297 297 295 293 294 299 303 303 305 309 309 307 305 305 305 305 306 307 308 307
290 282 274 274 273 271 273 280 281 277 282 287 290 296 298 288 281 286 294 293 294 302 305 304 308 310 307 305 304 303 304 303 306 308 305 306 307 305 306 305 303 303 302 302 302 301 301 303 303 302 302 301 298 300 300 300 299 298 298 297 294 295 295 294 295 295 296 297 297 295 292 291 295 299 302 303 305 307 308 308 308 308 308 306 307 310 311 310
294 291 281 278 278 278 279 282 283 278 277 286 298 299 287 282 287 292 293 294 300 305 305 305 310 312 310 308 307 307 306 305 308 308 306 305 304 304 306 305 303 304 304 301 300 301 299 299 302 304 304 301 300 302 302 302 301 299 299 298 294 293 292 293 293 292 295 297 294 291 289 288 292 296 300 303 304 306 308 308 309 308 308 308 308 310 311 307
295 295 292 288 285 285 284 284 285 280 275 287 302 296 282 284 291 292 294 300 304 306 309 311 312 312 311 310 309 311 310 306 308 309 306 304 304 304 305 305 303 303 303 301 299 301 300 299 302 305 304 302 302 302 302 301 301 300 299 296 294 294 294 294 294 295 296 292 290 290 289 291 294 296 300 304 304 306 306 305 306 307 308 310 308 307 307 305
296 294 294 295 294 291 287 287 288 280 280 293 298 289 285 289 292 292 298 304 304 307 313 313 310 310 310 309 308 310 311 308 308 309 307 307 307 304 304 307 306 303 304 303 300 300 299 299 301 304 303 303 303 301 301 301 299 297 296 296 297 297 297 295 294 296 295 289 290 292 290 293 295 293 298 304 304 305 303 301 303 304 306 307 305 305 304 303
286 288 296 300 298 292 288 291 289 282 290 300 298 292 292 296 297 298 302 305 305 309 313 308 306 309 309 308 308 309 310 309 310 310 308 308 308 305 306 309 309 307 307 306 303 301 300 299 301 303 301 303 304 303 302 302 300 298 296 297 298 296 295 296 293 293 292 290 292 292 290 293 294 293 298 302 302 302 301 299 300 300 301 301 302 303 302 302
283 287 299 301 300 294 290 292 289 291 300 301 296 297 298 299 302 303 305 307 308 310 310 305 307 310 309 307 308 310 311 309 310 312 309 308 307 308 310 309 308 309 308 306 303 302 302 299 298 301 301 302 305 303 302 303 303 302 300 299 297 293 292 292 291 291 292 291 291 292 291 292 293 295 297 299 299 299 298 298 297 297 298 298 299 299 299 300
285 289 295 298 303 299 293 295 296 300 305 297 292 298 302 302 305 308 308 309 310 310 308 307 309 310 309 309 310 310 311 310 310 310 308 307 308 309 311 309 308 308 307 307 305 303 303 298 295 301 303 302 302 301 299 300 301 301 300 297 296 295 294 293 291 291 291 290 291 292 291 290 293 295 296 297 298 297 297 296 295 295 297 298 298 298 298 298
290 293 293 297 305 300 297 305 307 305 305 300 297 302 305 305 309 312 310 309 310 309 309 308 308 309 309 312 311 310 311 311 310 309 307 308 310 308 309 309 306 306 307 307 306 304 303 298 296 300 302 300 301 300 298 298 299 299 297 295 295 295 295 294 292 291 291 289 289 290 290 290 292 293 294 295 296 296 297 296 294 295 297 297 298 298 297 297
297 297 295 300 304 301 304 309 307 307 306 303 304 305 308 310 312 312 310 311 311 311 312 311 310 310 311 310 310 311 312 310 309 309 307 307 307 306 309 310 307 306 307 306 304 303 302 300 298 298 299 300 301 303 302 301 301 301 299 298 298 297 295 293 292 294 294 291 291 291 290 290 290 290 292 293 294 296 298 297 295 296 297 297 297 297 297 297
300 297 297 303 304 305 314 312 310 313 309 305 307 307 309 311 311 311 311 311 312 311 313 313 311 311 311 311 311 312 312 310 307 307 307 308 307 306 309 312 310 309 309 307 306 305 304 303 301 301 301 301 303 305 305 304 304 303 301 301 299 297 296 293 292 294 293 291 293 292 289 290 290 290 291 293 294 297 299 299 297 295 296 297 296 296 296 296
297 299 301 309 309 309 313 309 309 312 309 310 315 314 312 310 309 311 311 311 311 311 313 313 311 311 311 311 312 311 312 311 308 307 309 309 309 310 312 314 312 311 311 309 308 307 305 304 305 306 306 305 306 308 306 304 306 304 302 302 302 300 299 296 295 294 291 290 292 290 290 292 290 290 293 294 294 296 299 301 299 296 296 297 296 295 296 296
300 303 302 311 317 318 314 307 307 310 310 314 317 315 314 312 309 311 311 311 311 311 313 313 311 312 313 313 313 312 312 310 308 310 313 311 309 311 314 315 314 312 311 311 311 308 305 306 307 306 305 306 308 308 307 306 306 303 301 303 304 303 301 299 297 295 293 294 294 291 292 293 291 292 296 297 296 296 298 300 300 298 298 298 297 295 295 296
297 302 304 312 319 323 319 315 315 314 312 313 314 313 314 313 311 312 312 313 313 314 314 313 313 315 316 316 314 312 312 311 309 311 313 311 310 311 315 316 317 316 313 312 314 311 307 308 308 304 303 304 306 306 306 307 305 303 304 304 304 303 301 301 300 296 296 298 296 294 296 296 296 298 299 299 300 299 298 299 300 299 299 299 298 296 295 296
300 301 305 310 314 319 322 322 322 318 313 312 312 313 314 313 313 315 314 314 315 316 315 314 316 317 315 316 315 313 313 313 311 312 312 311 311 312 316 318 318 318 317 314 314 313 311 310 310 308 305 305 307 307 306 307 306 305 306 305 304 304 304 304 302 299 300 299 296 298 302 299 299 302 302 302 302 301 300 300 300 300 298 298 298 297 296 297
307 302 306 312 312 313 317 319 320 321 320 316 313 313 316 317 317 316 315 315 316 318 317 317 319 319 315 314 316 315 314 314 313 313 313 314 315 315 317 318 318 319 320 317 316 316 315 312 312 312 309 308 309 308 307 309 308 307 307 306 305 305 305 304 302 301 303 300 297 302 302 299 300 303 303 304 304 302 302 302 301 301 300 300 301 300 298 298
313 310 312 318 317 313 313 314 317 322 323 319 316 317 319 320 319 316 315 317 318 319 319 318 318 320 318 315 316 316 317 318 316 315 315 317 318 317 317 317 318 320 322 320 319 319 318 314 314 314 312 311 312 310 310 311 309 308 309 308 307 307 307 307 304 304 305 301 299 302 300 297 301 304 303 304 304 303 303 304 304 304 302 302 303 303 301 299
312 310 311 321 325 321 319 318 319 321 321 320 318 317 317 317 318 318 316 318 319 320 321 319 318 319 320 319 318 318 319 320 317 314 316 318 318 319 319 317 318 320 322 321 319 320 321 318 318 318 315 314 315 314 314 315 313 311 312 311 311 310 309 309 308 307 307 304 302 302 299 297 300 304 304 304 306 306 305 305 306 305 303 303 304 304 303 300
317 313 312 321 324 322 321 321 321 321 320 320 317 315 317 318 319 320 318 319 323 323 321 320 319 320 322 324 323 320 319 319 315 314 317 318 317 319 320 318 319 320 321 322 320 321 323 320 320 322 319 317 319 319 319 319 316 314 315 315 314 312 311 311 312 310 308 306 304 303 301 300 303 304 303 303 306 307 306 305 306 305 304 304 304 304 304 302
320 318 317 320 322 322 322 321 322 322 317 316 317 317 318 319 320 322 321 321 326 329 325 322 323 323 324 326 325 322 320 319 318 318 320 320 318 319 319 319 321 321 321 323 323 323 324 323 323 324 320 318 322 323 320 319 316 313 314 315 314 313 312 313 313 312 309 306 305 304 303 304 305 305 305 304 306 307 306 306 306 304 304 305 304 304 305 304